Location: Kumla
(59.1265°N, 15.1401°E)
Time: 08:04:14
(UTC+01:00)

Transit 4A - Pass Details

Date: 12 December 2023
Orbit: 870 x 973 km, 66.8° (Epoch: 02 March)

Event Time Altitude Azimuth Distance (km) Brightness Sun altitude
Rises 16:39:49 0° 145° (SE) 3,659 10.9 -10.8°
Reaches altitude 10° 16:45:11 10° 107° (ESE) 2,706 9.9 -11.5°
Maximum altitude 16:46:10 10° 98° (E) 2,676 9.8 -11.6°
Enters shadow 16:46:40 10° 94° (E) 2,682 9.8 -11.6°
